Regional Weather Roundup
Issued by NWS

Current Version | Previous Version | Graphics & Text | Print | Product List | Glossary On
Versions: 1 2 3 4 5 6 7 8 9 10 11 12 13 14 15 16 17 18 19 20 21 22 23 24 25 26 27 28 29 30 31 32 33 34 35 36 37 38 39 40 41 42 43 44 45 46 47 48 49 50
565
ASUS42 KFFC 151610
RWRGA
WEATHER ROUNDUP FOR GEORGIA
NATIONAL WEATHER SERVICE PEACHTREE CITY GA
1200 PM EDT SUN SEP 15 2019

NOTE: "FAIR" INDICATES FEW OR NO CLOUDS BELOW 12,000 FEET WITH NO
SIGNIFICANT WEATHER AND/OR OBSTRUCTIONS TO VISIBILITY.

* = USE WITH CAUTION. THE STATIONS MARKED WITH AN ASTERISK MAY NOT
REPORT WEATHER SUCH AS PRECIPITATION, FOG, OR THUNDER AND ARE NOT
QUALITY CONTROLLED BY NWS.

THE REMARK "TC" DENOTES TEMPERATURE READING IN DEGREES CELSIUS.

GAZ001>058-151700-
NORTH GEORGIA

CITY           SKY/WX    TMP DP  RH WIND       PRES   REMARKS
ATLANTA        PTSUNNY   84  68  58 E8        30.18F
ATHENS         FAIR      81  70  69 NE6       30.17F
CHAMBLEE       FAIR      82  70  66 S8        30.18S
PEACHTREE CITY FAIR      85  70  60 VRB5      30.16F
ROME           FAIR      86  69  56 CALM      30.17F HX  90
WEST ATLANTA   FAIR      83  68  60 E7        30.17S
GAINESVILLE    PTSUNNY   82  70  66 VRB5      30.21F
CARTERSVILLE   FAIR      86  69  56 N7        30.18F HX  90


CITY           SKY/WX    TMP DP  RH WIND       PRES   REMARKS
LAWRENCEVILLE* FAIR      82  72  71 E7        30.19S
MARIETTA       PTSUNNY   82  70  65 VRB5      30.18S
KENNESAW*      FAIR      83  70  64 E7        30.19S
CANTON*        FAIR      82  68  61 CALM      30.21S
BLAIRSVILLE*   FAIR      80  68  68 NE3       30.25S
$$

GAZ059>098-102>109-151700-
CENTRAL GEORGIA

CITY           SKY/WX    TMP DP  RH WIND       PRES   REMARKS
AUGUSTA-BUSH   FAIR      88  69  53 E7        30.11F HX  92
AUGUSTA-DANIEL FAIR      87  66  49 NE9       30.13F
COLUMBUS       FAIR      87  68  52 E9        30.11F HX  90
MACON          FAIR      87  68  52 NE13      30.12F HX  90
ROBINS AFB     MOSUNNY   86  70  59 NE7       30.11F HX  90


CITY           SKY/WX    TMP DP  RH WIND       PRES   REMARKS
LAGRANGE*      FAIR      84  68  58 NE7       30.15F
SYLVANIA*      FAIR      87  71  59 E10       30.10F HX  92
MILLEDGEVILLE* FAIR      86  70  58 NE6       30.14S HX  90
$$

GAZ099>101-110>166-151700-
SOUTH GEORGIA

CITY           SKY/WX    TMP DP  RH WIND       PRES   REMARKS
SAVANNAH       FAIR      88  74  63 N13       30.06F HX  96
VALDOSTA       FAIR      87  72  60 NE10G16   30.05F HX  93
ALMA           FAIR      85  71  63 NE8       30.06F HX  90
ST SIMONS      CLOUDY    85  75  72 NE17G29   30.02F HX  93
FT STEWART     PTSUNNY   89  72  57 NE13      30.04F HX  95
ALBANY         FAIR      88  69  53 NE10G18   30.10F HX  92
HUNTER AFB     FAIR      87  73  62 E14       30.03F HX  94
MOODY AFB      FAIR      85  77  78 NE7       30.04F HX  95
BRUNSWICK      PTSUNNY   86  76  70 NE17G25   30.03F HX  96


CITY           SKY/WX    TMP DP  RH WIND       PRES   REMARKS
BAINBRIDGE*    FAIR      84  69  60 E13       30.07F
MOULTRIE*      FAIR      82  70  65 NE6       30.08S
VIDALIA*       FAIR      88  66  48 E9G16     30.09F HX  90
WAYCROSS*      PTSUNNY   86  66  49 NE10G18   30.05F
DOUGLAS*       FAIR      84  71  65 NE9G17    30.08F
$$




USA.gov is the U.S. government's official web portal to all federal, state and local government web resources and services.